Regional Weather Roundup
Issued by NWS

Home | Current Version | Previous Version | Graphics & Text | Print | Product List | Glossary On
Versions: 1 2 3 4 5 6 7 8 9 10 11 12 13 14 15 16 17 18 19 20 21 22 23 24 25 26 27 28 29 30 31 32 33 34 35 36 37 38 39 40 41 42 43 44 45 46 47 48 49 50
000
ASUS43 KBIS 231602
RWRND

NORTH DAKOTA REGIONAL WEATHER ROUNDUP
NATIONAL WEATHER SERVICE BISMARCK ND
1100 AM CDT TUE AUG 23 2016

NOTE: "FAIR" INDICATES FEW OR NO CLOUDS BELOW 12,000 FEET WITH NO
SIGNIFICANT WEATHER AND/OR OBSTRUCTIONS TO VISIBILITY.


NDZ001>003-009>011-017-231700-
NORTHWEST NORTH DAKOTA

CITY           SKY/WX    TMP DP  RH WIND       PRES   REMARKS
WILLISTON      CLOUDY    74  37  26 NW21      29.83R
MINOT          LGT RAIN  76  41  28 W24G38    29.68R
MINOT AFB      CLOUDY    74  41  30 NW31G43   29.67R
$$

NDZ018>021-031>035-040>046-231700-
SOUTHWEST NORTH DAKOTA

CITY           SKY/WX    TMP DP  RH WIND       PRES   REMARKS
BISMARCK       MOSUNNY   75  65  70 NW17G28   29.67R
DICKINSON      SUNNY     72  31  22 NW29G36   29.82R
GARRISON         N/A     74  44  34 NW23G29   29.72R
HETTINGER ARPT SUNNY     74  35  24 NW26G41   29.82R
$$

NDZ004>008-012>016-024-026-027-054-231700-
NORTHEAST NORTH DAKOTA

CITY           SKY/WX    TMP DP  RH WIND       PRES   REMARKS
GRAND FORKS    CLOUDY    77  63  61 S23       29.62F
GRND FRKS AFB  CLOUDY    77  65  66 S20       29.62F
DEVILS LAKE    SUNNY     75  66  73 SW13      29.62R
$$

NDZ022-023-025-028>030-036>039-047>053-231700-
SOUTHEAST NORTH DAKOTA

CITY           SKY/WX    TMP DP  RH WIND       PRES   REMARKS
FARGO          SUNNY     78  64  61 S14       29.70S
JAMESTOWN      CLOUDY    72  66  81 S15       29.63F
$$





USA.gov is the U.S. government's official web portal to all federal, state and local government web resources and services.